Aeroporto :
LOGIN :

Iscrizione | Disclaimer

   EN    FR    IT 

 










Sommario :    VFR   VFR Marginale   IFR   IFR Intensivo   IFR Molto Intensivo
Visibilità : 
Base nubi : 
>= 8 km
>= 3000ft
5 / 8 km
1000 / 3000 ft
1500m / 5 km
500 / 1000 ft
800 / 1500m
200 / 500 ft
< 800m
< 200 ft
Simboli :   Temporali  Nebbia  Neve Forte  Precipitazioni Forti  Vento > 20 kt
SIGMETs :   Varie  Temporali  Ghiacco  Turbolenza  Onda orograficha  Ceneri Vulcaniche






- Altitudine del aeroporto : 1036 ft
- Codice IATA : ERF


EDDE - Erfurt

ULTIMO METAR :
  • 230350Z 25009KT CAVOK 03/02 Q1024 NOSIG

METARs OBSOLETI :
  • 230320Z 24009KT 9999 FEW018 03/02 Q1023
  • 230250Z 25010KT 9999 FEW018 03/02 Q1023
  • 230220Z 24010KT 9999 FEW036 03/02 Q1023
  • 230150Z 25012KT CAVOK 03/02 Q1022
  • 230120Z 25011KT CAVOK 03/02 Q1022

TAF TAF EDDE
Valido dal 23 a 00 ore il 24 a 00 ore UTC


222300Z 2300/2324 27008KT CAVOK
BECMG 2313/2316 25003KT



MetMap, La meteo Aeronautica in un colpo d'occhio ! - Copyright ORBIFLY Dicembre 2007 - Disclaimer

ORBIFLY MET'MAP TEAM :

Programmazione e sviluppo : Alexandra Zaïnal
Concezione : Baudouin d'Aumeries
Aiuto per la programmazione : Marc-Olivier Méhu
Supporto tecnico e logistico : Manuel Goepfert
Aiuto per la traduzione : Arnaldo La Scala

Contatto : metmap@orbifly.com




FONTI E CREDITI :

   NOAA